Location: Palo Alto
(37.4420°N, 122.1420°W)
Time: 09:44:59
(UTC-07:00)

X-37B - Pass Details

Date: 19 August 2020
Orbit: 386 x 387 km, 45.0° (Epoch: 18 September)

Event Time Altitude Azimuth Distance (km) Brightness Sun altitude
Rises 22:00:23 0° 291° (WNW) 2,263 5.7 -23.0°
Reaches altitude 10° 22:02:36 10° 280° (W) 1,407 4.2 -23.4°
Enters shadow 22:04:14 23° 257° (WSW) 880 2.7 -23.6°
